Погода в Жарыке

Погода в Жарыке : погода сейчас, прогноз погоды и архив. Всё, что Вы хотите узнать о погоде в Жарыке!

Поиск расширенной информации на нашем сайте:

Другие новости

Новости СМИ2

Главная страница сайта

Новости сайта

02.10.2013

Напоминаем, что на нашем новом сайте вы можете получить высокодетализированные прогнозы погоды по пунктам России, СНГ и мира (включающие важные для авиации метеовеличины, такие как направление и скорость ветра, видимость, явления погоды, количество и форма облачности, нижняя и верхняя граница облачности), а также ознакомиться с разнообразными материалами по авиационной метеорологии и подборкой полезных ссылок на эту тему.

Сайт Метеоцентр.Азия посвящён разработке технологий оптимизации авиаметеорологического обслуживания, включая проектирование и перспективное создание нескольких автоматизированных авиаметеорологических систем:
- система выпуска высокодетальных прогностических карт явлений погоды для нижнего воздушного пространства по России и ближнему зарубежью;
- система верификации прогнозов TAF (выпускаемых синоптиками официальных АМСГ РФ и ближнего зарубежья) и AUTOTAF (выпускаемых сайтом Метеоцентр.Азия) - выявление ошибок, онлайн-сопоставление с фактической погодой METAR, автоматическое внесение коррективов в прогнозы при резком отклонении фактической погоды от прогноза, подсчёт оправдываемости прогнозов по элементам и в целом;
- система обработки, анализа и отображения авиаметеорологической информации для применения провайдерами метеорологической информации.

Рекомендуем: Комерческая недвижимость в крыму продажа коммерческой недвижимости в крыму.

Погода в Жарыке - сегодня

Время (UTC), дата Ветер
(°,м/с) 
Видим.   Явления Облачность Т
(°С)
Тd
(°С)
f(%) Тe
(°С)
Pmin
(гПа)
dP
(гПа)
Po
(мм)
O2
(г/м3)
Тmin Tmax R s Состояние
почвы
03 20.04.17 070 (В) 20000 м    6/0 верхняя 
[Ci fib]
+13.4 -0.9 37 +12  1019.6  0.4  708  272           
06 20.04.17 070 (В) 20000 м    8/0 верхняя 
[Ci sp]
+17.2 +1.2 34 +17  1018.5  -0.1  708  268  +9         
09 20.04.17 090 (В) 20000 м    8/0 верхняя 
[Ci sp]
+19.3 +0.1 27 +19  1016.4  -1.4  707  266           
12 20.04.17 050 (СВ) 20000 м    ясно 
+19.2 -0.1 27 +20  1015.2  -1.1  706  266           
15 20.04.17 070 (В) н/о    ясно 
+13.7 +3.1 49 +13  1016.7  706  270    +20       
18 20.04.17 070 (В) н/о    ясно 
+10.9 +3.4 60 +9  1017.1  -0.3  706  273    +20       
21 20.04.17 070 (В) н/о    ясно 
+9.1 +1.9 61 +7  1016.5  -1  705  274           
00 21.04.17 090 (В) 20000 м    3/0 верхняя 
[Ci sp]
+8.4 +2.4 66 +7  1015.4  -1.2  704  275           
03 21.04.17 090 (В) 20000 м    8/0 средняя, верхняя 
[Ac lent|Ci sp]
+11.1 +2.9 57 +9  1013.8  -0.8  703  272           
06 21.04.17 140 (ЮВ) 20000 м    8/0 верхняя 
[Ci sp]
+19.3 +0.9 29 +19  1009.9  -1.6  702  264  +8.4         
09 21.04.17 140 (ЮВ) 20000 м    9/5 600 м кучево-дожд., верхняя 
[Cb cap|Ci sp]
+19.9 +2.7 32 +20  1007.6  -2  701  263           
12 21.04.17 140 (ЮВ) 20000 м    9/9 600 м кучево-дожд. 
[Cb cap]
+17.7 +3.4 38 +18  1006.4  -1.6  700  264           
15 21.04.17 180 (Ю) н/о    10/10 600 м кучево-дожд. 
[Cb cap]
+12.5 +8.4 76 +14  1007.4  -0.3  699  268    +22       
18 21.04.17 180 (Ю) н/о    5/5 600 м кучево-дожд. 
[Cb cap]
+12.6 +7.9 73 +13  1007.1  -0.2  699  268    +22       
21 21.04.17 180 (Ю) н/о  слаб. ливневой дождь  10/10 600 м кучево-дожд. 
[Cb cap]
+10.5 +9.5 94 +12  1006.9  -0.7  699  269           
00 22.04.17 200 (Ю) 10 км  слаб. ливневой дождь  10/10 600 м кучево-дожд. 
[Cb cap]
+10.4 +9.6 95 +11  1006.7  -0.2  698  269           
03 22.04.17 230 (ЮЗ) 20000 м  {ливн. осадки}  10/10 600 м кучево-дожд. 
[Cb cap]
+10.5 +9.1 91 +10  1008.2  1.4  700  270         
06 22.04.17 230 (ЮЗ) 20000 м    10/10 600 м кучево-дожд. 
[Cb cap]
+10.5 +9.1 91 +10  1010.9  2.5  701  270  +10.4       
09 22.04.17 270 (З) 20000 м    6/6 600 м кучево-дожд. 
[Cb cap]
+15.3 +8.2 63 +15  1012.1  2.3  703  267           
12 22.04.17 270 (З) 20000 м    6/6 600 м кучево-дожд. 
[Cb cap]
+13.9 +7.4 65 +14  1014.3  1.6  704  269           
15 22.04.17 290 (З) н/о    ясно 
+8.3 +0 56 +8  1019.4  3.2  707  276    +16       
18 22.04.17 320 (СЗ) н/о    ясно 
+4.3 -1.3 67 +4  1022.5  1.8  708  281    +16       
21 22.04.17 тихо ()   н/о    ясно 
+2.1 -2.1 74 +2  1023.6  0.4  708  283           
00 23.04.17 010 (С) 20000 м    ясно 
+1.9 -2.3 74 +1  1023.4  -0.2  708  284           
03 23.04.17 090 (В) 20000 м    3/0 верхняя 
[Ci fib]
+8.3 -1 52 +8  1021.9  0.3  708  277           
Время (UTC), дата Ветер
(°,м/с) 
Видим.   Явления Облачность Т
(°С)
Тd
(°С)
f(%) Тe
(°С)
Pmin
(гПа)
dP
(гПа)
Po
(мм)
O2
(г/м3)
Тmin Tmax R s Состояние
почвы

Для получения пояснительной информации подведите курсор к названию столбца.

ПОГОДА в Жарыке - архив

Всё, что Вы хотите узнать о погоде в Жарыке - удобно и подробно!

Выберите нужную дату (начиная с 1 января 2015* года) и нажмите кнопку "Найти".
Будут отображены архивные сводки погоды по пункту Жарык, начиная с указанной даты.


Отображать данные в формате CSV (для использования в таблицах Excel)


Внимание! Наш архив погоды предназначен исключительно для личного некоммерческого использования в познавательных целях. Если Вам необходимы официальные справки о состоянии погоды (для производственных, юридических, коммерческих и т.п. целей), обращайтесь в органы Росгидромета.

*Примечание: данная дата относится к архиву по метеостанциям СССР (Россия, СНГ, Балтия).
Архив по метеостанциям Зарубежной Европы и Азии (кроме Китая) хранится 10 дней, по другим регионам земного шара (Китай, Африка, Америка, Австралия, Океания) - 1 день.

Жарык - район местоположения метеостанции


Название, широта, долгота, высота метеостанции:
Жарык 48.9°ш. 72.9°д. 656 м над ур. моря [Казахстан]

Дополнительная информация

В oтличие oт бoльшинства пoгoдных сайтoв мы публикуем пoдрoбную метеoинфoрмацию в детальнoм прoфессиoнальнoм фoрмате.

Характеристики температуры и влажнoсти вoздуха измеряются на высoте 2 м в тени вдали oт зданий и деревьев.
Скoрoсть ветра измеряется на высoте 10 м (на урoвне рoста челoвека скoрoсть ветра ниже в 1.5-2 раза). Если метеoстанция нахoдится в гoрoде или в лесу, тo скoрoсть ветра занижена на 2-4 м/с пo сравнению с oткрытым местoм. Скoрoсть ветра над акватoриями крупных рек и oзёр, а также на вершинах хoлмoв на 2-5 м/с выше, чем в oбычных услoвиях.
Атмoсфернoе давление в разных тoчках местнoсти мoжет значительнo oтличаться oт давления на метеoстанции, в зависимoсти oт услoвий рельефа (при пoдъёме на 10 м давление пoнижается примернo на 1 мм рт.ст.).